Regional Weather Roundup
Issued by NWS Sioux Falls, SD

Home | Current Version | Previous Version | Text Only | Print | Product List | Glossary On
Versions: 1 2 3 4 5 6 7 8 9 10 11 12 13 14 15 16 17 18 19 20 21 22 23 24 25 26 27 28 29 30 31 32 33 34 35 36 37 38 39 40 41 42 43 44 45 46 47 48 49 50
000
ASUS43 KFSD 210910
RWRFSD

WEATHER ROUNDUP FOR SE SOUTH DAKOTA/SW MINNESOTA/NW IOWA
NATIONAL WEATHER SERVICE SIOUX FALLS SD
300 AM CST SAT JAN 21 2017

NOTE: "FAIR" INDICATES FEW OR NO CLOUDS BELOW 12,000 FEET WITH NO
SIGNIFICANT WEATHER AND OR OBSTRUCTIONS TO VISIBILITY.


SDZ038>040-050-052>070-211000-
SOUTHEAST SOUTH DAKOTA

CITY           SKY/WX    TMP DP  RH WIND       PRES   REMARKS
BROOKINGS      FOG       35  34  96 SE12      29.35S VSB 1/2 WCI  27
CHAMBERLAIN    CLOUDY    25  25  99 W8        29.35S WCI  16
HURON          FOG       36  36 100 W5        29.33S VSB 1/4
MADISON        CLOUDY    34  34 100 SE7         N/A  WCI  28
MITCHELL       CLOUDY    38  38 100 S7        29.34S FOG
SIOUX FALLS    CLOUDY    36  36 100 SE7       29.36S FOG
WINNER         CLOUDY    27  24  89 CALM      29.35R
YANKTON        CLOUDY    37  36  93 SE5       29.34F
$$

MNZ071-072-080-081-089-090-097-098-211000-
SOUTHWEST MINNESOTA

CITY           SKY/WX    TMP DP  RH WIND       PRES   REMARKS
FAIRMONT       LGT RAIN  34  34 100 E7        29.41F VSB 3/4 WCI  28
JACKSON        FOG       32  32 100 E8        29.40F VSB 1/2 WCI  25
LUVERNE        CLOUDY    34  34 100 SE5       29.38S FOG     WCI  30
MARSHALL       CLOUDY    34  34 100 E6        29.40F FOG     WCI  29
MONTEVIDEO     DRZL/FOG  34  34 100 SE9       29.43F VSB 1   WCI  26
PIPESTONE      FOG       36  36 100 SE6       29.35F VSB 1/2
REDWOOD FALLS  FOG       35  33  92 E6        29.42F VSB 1/2
TRACY          CLOUDY    36  35  99 SE6       29.40S FOG
WINDOM         FOG       34  34 100 E5        29.40F VSB 1/2 WCI  30
WORTHINGTON    FOG       34  33  96 E8        29.39  VSB 3/4 WCI  27
$$

IAZ001>003-012>014-020>022-031-032-NEZ013-014-SDZ071-211000-
NORTHWEST IOWA

CITY           SKY/WX    TMP DP  RH WIND       PRES   REMARKS
CHEROKEE       CLOUDY    36  36 100 CALM      29.39S FOG
DENISON        CLOUDY    37  37 100 E3        29.36F FOG
ESTHERVILLE    FOG       33  33 100 E5        29.39F VSB 1   WCI  29
LE MARS        FOG       37  37 100 SE7       29.38F VSB 1/2
ORANGE CITY    DRIZZLE   36  36 100 SE3       29.37F
SHELDON        MIX PCPN  36  36 100 SE7       29.37S VSB 1/4
SIOUX CITY     FOG       39  38  96 SE5       29.38S VSB 1/4
SPENCER        FOG       35  35 100 E5        29.39F VSB 3/4
STORM LAKE     FOG       34  34 100 SE3       29.38F VSB<1/4
$$

ABBREVIATIONS USED IN REMARKS
   TC - TEMPERATURE IN CELSIUS
  WCI - WIND CHILL INDEX
   HX - HEAT INDEX
  VSB - VISIBILITY




USA.gov is the U.S. government's official web portal to all federal, state and local government web resources and services.